Hourly Data Report for November 18, 2019

OTTAWA INTL A
ONTARIO
Current Station Operator: NAVCAN

45°19'00.000" N
75°40'00.000" W
114.90 m
6106001
71628
YOW

Download Data

Hourly Data (November 2019)
Hourly Data Report for November 18, 2019
TIME Temp Definition
°C
Dew Point Definition
°C
Rel Hum Definition
%
Wind Dir Definition
10's deg

Wind Spd Definition
km/h
Visibility Definition
km
Stn Press Definition
kPa
Hmdx Definition


Wind Chill Definition


Weather Definition


00:00 -8.3 -12.1 74 6 16 24.1 100.58   -15 LegendNANA
01:00 -7.8 -11.8 73 5 15 24.1 100.54   -14 Cloudy
02:00 -7.3 -11.5 72 5 15 24.1 100.46   -13 LegendNANA
03:00 -6.9 -11.1 72 5 15 24.1 100.40   -13 LegendNANA
04:00 -6.6 -10.8 72 6 17 24.1 100.36   -13 Cloudy
05:00 -6.4 -10.5 73 6 17 24.1 100.34   -13 LegendNANA
06:00 -6.3 -10.4 73 5 19 24.1 100.31   -13 LegendNANA
07:00 -5.9 -10.2 71 6 17 24.1 100.27   -12 Cloudy
08:00 -5.4 -10.0 70 6 15 24.1 100.29   -11 LegendNANA
09:00 -5.0 -9.7 70 7 16 24.1 100.21   -11 LegendNANA
10:00 -4.0 -9.2 67 7 16 24.1 100.16   -10 Cloudy
11:00 -2.7 -8.6 64 7 16 24.1 100.09   -8 LegendNANA
12:00 -1.5 -7.5 64 7 15 24.1 100.00   -6 LegendNANA
13:00 0.2 -6.5 61 7 16 24.1 99.91     Mainly Clear
14:00 0.2 -6.5 61 6 18 24.1 99.85     LegendNANA
15:00 -0.1 -6.4 62 5 16 24.1 99.81   -5 LegendNANA
16:00 -0.7 -7.3 61 6 13 24.1 99.78   -5 Mostly Cloudy
17:00 -1.9 -7.8 64 5 14 24.1 99.77   -7 LegendNANA
18:00 -2.8 -7.5 70 4 14 24.1 99.77   -8 LegendNANA
19:00 -2.4 -8.1 65 6 17 24.1 99.71   -8 Mostly Cloudy
20:00 -2.8 -9.0 63 6 16 24.1 99.69   -8 LegendNANA
21:00 -3.7 -9.2 66 4 15 24.1 99.64   -9 LegendNANA
22:00 -3.9 -8.8 68 4 12 24.1 99.59   -9 Cloudy
23:00 -3.3 -9.4 63 36 8 24.1 99.56   -7 LegendNANA

Notes on Data Quality.

Legend

  • E = Estimated
  • M = Missing
  • NA = Not Available*
  • [empty] = Indicates an unobserved value
Date modified: